SCP
0 0 1 1 1 1 1 1 1 1 1 1 1 1 1 0 0 0 1 1 1 1 1 1 1 1 1 1 1 1 1 1 1 1 1 1 0 0 1 1 1 1 1
0 0 1 1 1 1 1 1 1 1 1 1 1 1 1 1 0 0 1 1 1 1 1 1 1 1 1 1 1 1 1 1 1 1 1 1 0 0 1 1 1 1 1
0 0 1 2 1 1 1 1 1 1 1 1 1 1 1 1 1 1 1 1 1 1 1 1 1 1 1 1 1 1 1 1 1 1 1 1 1 1 1 1 1 1 1
0 0 1 1 2 1 1 1 1 1 1 0 1 1 1 1 1 1 1 1 1 2 2 1 1 1 1 1 1 1 1 1 1 1 1 1 1 1 1 1 1 1 1
0 0 1 1 1 1 1 1 1 1 1 0 0 1 1 1 1 1 1 1 1 2 2 1 1 1 1 1 0 1 1 1 1 0 1 1 1 1 1 1 1 1 1
0 1 1 1 1 1 1 1 1 1 1 1 0 0 1 1 1 1 1 1 1 1 1 1 1 1 1 0 0 0 0 1 0 0 0 1 1 1 1 1 1 1 1
0 1 1 1 1 1 1 1 1 1 1 1 0 0 0 1 1 1 1 1 1 1 1 1 1 1 1 0 0 0 0 0 0 0 0 0 1 1 1 1 1 1 1
1 1 1 1 1 1 1 1 1 1 1 1 0 0 0 0 1 1 1 1 1 1 1 1 1 1 1 0 0 1 1 1 0 0 0 0 1 1 1 1 1 1 1
0 1 1 1 1 1 1 1 1 1 1 1 1 1 0 0 1 1 1 1 1 0 1 1 1 1 1 1 1 1 1 1 1 0 0 1 1 1 1 1 1 1 1
0 0 1 1 1 1 1 1 1 1 1 1 1 1 1 1 1 1 1 1 1 1 1 1 1 1 1 1 1 1 1 1 1 0 1 1 2 2 2 1 1 1 1
0 0 0 1 1 1 1 1 1 1 1 1 1 1 1 0 0 1 1 1 1 1 1 1 1 1 1 1 1 1 1 1 1 1 1 2 2 2 2 1 1 1 1
0 0 0 0 0 1 1 1 1 1 1 1 1 1 1 1 1 1 1 1 1 1 1 1 1 1 1 1 1 1 1 1 1 1 2 2 2 2 1 2 2 2 1
0 0 0 0 0 0 1 1 1 1 1 1 1 1 1 1 1 1 1 1 1 1 1 1 1 1 1 1 1 1 1 2 2 2 2 2 2 2 1 1 2 2 2
1 1 0 0 0 1 1 1 1 1 1 1 1 1 1 1 1 1 1 1 1 1 1 1 1 1 1 1 1 1 1 2 2 2 2 2 2 2 1 1 2 2 2
1 1 1 1 1 1 1 2 1 1 1 1 0 0 1 1 1 1 1 1 1 1 1 1 1 1 1 1 1 1 1 2 2 2 2 2 2 2 2 1 1 2 2
1 1 1 1 1 1 2 3 3 2 2 1 1 0 0 1 1 1 1 1 1 1 1 1 1 1 1 1 1 1 1 1 2 2 2 3 2 2 2 2 2 1 1
1 1 1 1 1 2 3 3 3 3 3 2 1 0 0 0 0 1 1 1 1 1 1 1 1 1 1 1 1 1 1 1 2 2 2 3 3 2 2 2 1 1 1
1 1 1 1 1 2 3 4 4 4 4 3 2 1 0 0 0 0 1 1 1 1 1 1 1 1 1 1 1 1 1 2 2 2 2 2 2 2 2 1 1 1 1
1 1 1 1 1 2 3 5 5 5 4 3 2 1 1 0 0 0 0 1 1 1 1 1 1 1 1 1 1 1 1 1 2 2 2 2 1 1 1 1 1 1 1
1 1 1 1 1 2 3 6 6 6 4 2 2 1 1 1 1 1 1 0 1 1 1 1 1 1 1 1 1 1 1 1 1 1 1 1 1 1 1 1 1 1 1
2 2 2 2 2 2 3 6 8 7 4 2 1 1 1 1 1 1 1 1 1 1 1 1 1 1 1 1 1 1 1 1 1 1 1 1 1 1 1 1 1 1 1
2 2 2 2 2 2 3 6 8 6 3 1 1 1 1 1 1 1 1 1 1 1 1 1 1 1 1 1 1 1 1 1 1 1 1 1 1 1 1 1 1 1 1
2 2 2 2 2 3 4 5 5 3 2 1 1 1 1 2 1 1 1 1 1 1 1 1 1 1 2 2 2 1 1 1 1 1 2 2 2 2 2 2 2 2 1
2 2 1 2 2 3 4 4 3 2 1 1 1 1 1 1 2 2 2 1 1 1 1 1 1 2 2 2 2 1 1 1 1 2 2 2 2 3 3 2 2 2 2
1 2 2 2 2 3 3 3 2 2 1 1 1 1 2 2 2 2 2 2 2 2 2 2 2 2 2 2 1 1 1 1 1 2 2 2 3 3 3 3 2 2 2
1 2 2 2 2 2 2 2 2 1 1 1 1 2 2 2 2 2 2 2 2 2 2 3 2 2 2 2 1 1 1 1 1 2 2 2 3 3 3 3 2 2 2
Wind_Speed
4 7 10 8 8 9 10 10 10 11 11 11 11 11 11 11 10 10 9 9 9 9 8 8 8 9 8 8 8 8 8 8 8 8 8 8 8 8 7 8 7 8 11
6 8 10 8 9 9 10 9 9 10 10 10 10 10 10 10 10 9 9 9 9 8 8 8 8 8 8 8 8 8 7 7 7 8 8 8 8 8 7 6 3 6 10
7 9 10 8 9 9 9 9 9 9 9 9 9 9 9 9 9 9 9 8 8 8 8 8 8 7 7 7 7 7 7 7 7 7 8 7 8 8 7 6 6 8 9
7 8 9 9 8 8 9 9 9 9 8 8 8 8 8 8 8 8 8 8 7 7 7 7 7 7 7 7 7 7 7 7 6 7 6 5 6 9 8 7 7 8 9
8 8 11 8 8 8 8 8 8 8 7 7 7 7 8 8 7 7 7 7 7 7 6 6 6 6 6 6 6 6 6 6 7 8 4 4 4 9 8 7 8 8 9
8 7 12 8 8 8 8 8 8 7 7 7 6 6 6 6 6 6 6 6 6 6 6 6 6 5 6 6 6 6 6 7 9 5 4 4 5 9 8 8 8 8 9
7 7 10 8 8 8 8 7 7 6 6 6 5 5 5 5 5 5 5 5 5 5 5 5 5 5 5 5 6 6 6 7 7 3 3 3 4 8 8 8 8 8 9
7 7 9 10 8 8 7 6 6 6 5 5 5 5 5 5 4 4 5 5 4 4 4 5 5 5 5 5 6 6 7 8 7 5 4 3 5 7 8 8 8 9 9
6 6 6 8 8 8 8 6 5 4 4 4 4 4 4 5 5 4 4 5 4 4 4 4 5 5 5 5 6 7 8 8 7 4 5 3 7 7 8 8 8 9 10
6 5 5 5 6 6 7 7 5 3 3 3 3 4 4 5 6 5 5 4 4 4 4 4 4 5 5 5 6 7 8 9 8 6 4 4 7 7 8 8 8 9 9
5 4 4 4 4 4 5 7 5 4 3 3 4 5 4 3 4 5 3 3 3 3 4 4 5 5 6 8 8 7 8 6 6 4 3 7 7 7 8 8 8 8 9
5 4 3 3 3 3 2 3 2 2 3 1 1 2 2 1 1 1 5 3 3 4 5 5 5 7 9 7 9 10 6 6 5 4 4 8 8 8 8 8 8 8 9
5 4 4 3 3 2 2 2 1 0 1 1 1 1 1 1 1 1 1 3 4 6 5 6 7 5 5 4 4 5 5 5 3 3 4 9 8 9 9 8 8 8 9
4 4 3 3 3 1 1 1 1 1 1 1 1 1 1 1 0 0 1 1 2 2 2 3 2 3 4 4 5 5 5 4 4 3 4 9 8 9 9 9 9 9 8
4 3 3 3 3 2 1 1 1 1 0 1 1 0 1 1 1 1 1 1 2 2 2 3 2 3 3 4 4 5 5 4 4 4 4 9 8 8 8 9 9 9 10
4 3 3 3 4 3 2 2 1 1 1 0 0 1 1 1 1 1 1 2 1 1 1 2 2 2 3 2 3 3 4 4 4 4 4 6 9 9 8 9 9 9 9
4 4 3 3 3 3 3 2 2 1 1 0 0 0 1 2 1 2 1 2 1 1 1 2 2 2 3 3 3 3 4 4 4 5 5 4 6 10 10 9 8 9 9
4 4 3 2 3 3 2 2 1 0 0 0 0 0 0 1 2 2 2 1 1 1 1 1 2 2 2 2 2 3 3 3 4 5 4 5 4 5 9 10 9 8 8
4 3 3 2 2 3 3 2 2 1 0 0 0 1 1 1 2 2 2 2 2 2 2 2 0 2 2 1 2 2 3 3 4 5 4 5 4 4 4 8 10 8 8
4 4 4 3 3 3 3 2 2 1 1 1 0 1 1 1 1 2 1 1 3 2 2 1 2 2 2 2 3 1 2 2 3 3 3 3 3 4 4 4 6 7 7
5 4 4 3 3 3 2 2 2 2 1 1 0 1 1 1 1 2 2 1 2 2 2 2 2 2 2 2 2 2 2 3 2 2 2 2 3 3 3 3 3 3 5
5 4 4 4 3 3 2 2 1 1 1 1 0 1 0 1 2 1 2 2 1 1 1 2 2 3 2 1 2 2 2 3 3 3 3 3 3 2 3 4 3 3 3
6 5 4 4 4 3 3 2 2 2 1 1 1 1 0 1 1 2 2 3 2 2 1 1 2 2 2 1 1 2 2 1 1 3 3 2 2 2 2 2 3 3 4
6 6 5 4 4 3 3 3 3 2 2 1 1 1 1 0 1 1 1 2 2 2 1 2 0 2 2 2 1 1 2 2 2 1 2 3 3 2 2 2 2 3 3
7 6 6 5 4 4 3 3 3 2 2 1 1 1 1 0 1 1 1 1 1 1 1 2 1 2 1 2 1 1 1 2 4 3 2 2 2 2 2 3 2 2 2
7 6 6 5 5 4 4 3 3 2 2 1 1 1 2 1 0 1 1 1 1 1 1 1 1 1 2 2 2 1 1 2 2 2 3 2 2 2 2 2 2 2 2
Wind_Direction
105 105 112 118 121 119 121 122 121 123 125 128 130 132 133 135 136 135 137 136 136 134 131 132 136 137 136 134 132 131 130 133 137 140 139 138 138 140 140 146 161 140 123
112 108 115 119 120 119 120 120 119 121 122 126 129 131 136 139 139 139 140 139 138 138 137 136 137 139 138 138 138 138 138 138 140 147 150 149 150 153 154 159 174 117 134
115 115 122 117 120 123 124 124 122 123 124 127 131 134 138 142 142 143 143 142 142 143 143 142 139 140 142 142 144 147 147 148 150 158 178 174 154 159 162 162 151 143 145
116 119 116 118 122 125 127 128 126 128 130 132 134 137 140 143 146 145 146 147 148 149 146 144 143 146 148 149 152 154 154 156 163 189 196 176 162 147 165 169 165 162 159
113 115 109 123 126 129 130 131 131 133 135 135 139 140 142 146 148 149 151 152 152 153 153 152 153 156 159 160 161 160 161 167 185 214 188 178 163 145 166 174 174 170 168
116 116 109 121 121 123 125 127 131 134 135 133 136 140 141 143 147 151 155 156 158 159 161 163 163 169 173 174 175 173 177 189 211 198 185 189 169 152 171 179 176 176 176
112 111 113 118 118 119 121 125 129 130 130 133 136 140 141 143 149 156 159 157 159 165 168 172 173 179 186 190 191 190 193 213 230 194 194 197 156 151 175 184 180 182 183
112 114 117 126 121 119 118 122 126 130 135 139 143 147 153 160 165 169 171 169 171 178 180 180 185 196 194 201 203 200 205 230 217 205 199 187 140 162 183 189 185 188 191
114 115 119 130 132 132 125 123 123 129 136 144 150 154 160 170 175 174 177 183 187 193 196 195 194 197 201 209 211 209 212 235 244 213 203 181 151 176 189 192 192 195 195
116 117 117 120 125 137 135 129 126 130 135 142 151 160 168 177 179 179 187 180 192 202 206 206 202 204 207 212 213 214 218 229 229 213 204 151 155 185 195 199 197 200 198
114 114 116 117 119 125 124 127 146 150 150 169 164 167 194 194 181 179 157 148 184 203 207 212 215 215 216 209 211 215 223 229 219 219 202 135 166 192 199 201 202 204 202
126 124 115 107 106 114 113 118 142 161 138 171 109 148 177 157 221 210 129 176 205 215 212 215 221 221 226 214 195 205 223 223 225 216 168 148 179 197 203 205 207 209 209
134 128 124 119 117 119 116 133 118 94 108 149 113 140 161 211 194 224 186 183 204 213 219 200 213 226 227 226 223 213 220 227 222 222 161 159 188 203 205 206 211 212 210
132 131 121 122 124 116 93 119 146 143 119 103 107 277 185 205 253 235 252 243 228 223 221 240 230 230 241 234 229 231 226 230 223 221 153 162 188 202 205 205 206 206 211
134 134 129 137 140 151 157 246 143 146 157 114 69 71 326 279 274 283 285 271 262 258 218 231 243 237 237 229 225 223 233 228 230 224 170 169 187 197 204 204 207 211 215
147 146 148 164 156 176 178 187 190 188 140 100 106 79 302 307 318 292 273 279 275 276 288 263 248 244 240 243 240 231 240 234 223 228 214 179 185 192 200 204 208 212 216
157 153 163 166 162 177 189 198 192 200 153 154 124 102 287 291 295 287 272 268 290 270 251 254 256 249 233 226 229 229 232 237 230 224 221 213 192 189 196 203 209 212 217
163 156 167 171 162 168 175 204 201 224 104 120 196 185 280 305 295 284 281 282 283 266 255 240 254 255 247 241 232 230 224 220 225 225 220 215 218 204 191 197 206 211 214
169 162 164 171 177 180 175 188 185 168 305 300 318 323 329 291 289 285 300 323 285 269 265 270 227 271 265 258 240 218 223 222 222 223 219 216 214 219 207 181 194 205 210
167 164 164 172 182 192 185 190 183 180 204 257 307 348 337 322 317 292 271 304 286 276 270 291 283 269 274 268 265 238 225 219 226 217 218 206 205 213 214 198 191 193 194
163 164 171 179 179 192 192 206 188 184 188 206 223 21 336 316 316 303 309 293 281 281 293 281 275 248 249 254 251 230 207 202 205 202 212 218 200 209 210 207 211 205 179
166 171 174 180 185 195 191 207 200 177 189 175 186 116 299 311 301 280 306 295 299 291 286 288 285 292 280 239 264 252 218 187 193 185 193 199 207 204 201 198 201 210 223
170 178 176 175 180 193 194 184 163 163 181 175 182 164 189 313 331 340 333 322 320 300 303 278 276 276 283 252 251 281 281 264 175 170 182 195 201 203 211 195 200 204 220
173 173 170 169 172 178 191 194 200 198 196 198 218 133 181 240 317 330 326 318 313 311 314 277 306 285 281 278 239 265 294 325 286 208 185 183 188 203 216 226 202 196 210
169 167 161 162 166 171 184 185 210 212 218 202 192 167 258 208 282 312 313 311 308 306 327 331 351 298 289 299 295 284 265 255 259 264 245 195 196 211 203 222 222 209 205
164 166 162 160 167 171 180 184 201 206 224 227 228 231 240 224 244 306 283 301 298 325 339 296 297 270 292 302 295 285 276 273 270 267 264 240 226 221 206 205 224 215 211